Flag for Germany Weather past 2 weeks in Dresden, Saxony, Germany

Now
34 °F

Passing clouds.


Feels Like: 24 °F
Forecast: 30 / 39 °F
Wind: 15 mph from South

Location: Dresden-Klotzsche

Current Time: Jan 30, 2015 at 5:56:16 AM

Latest Report: Jan 30, 2015 at 5:20 AM


Visibility: N/A

Pressure: 28.71 "Hg

Humidity: 81%

Dew point: 28 °F

Location of DresdenLocation

Historic Weather in Dresden — Graph

°F

Dresden temperature yesterday

Maximum temperature yesterday: 39 °F (at 12:20 AM)
Minimum temperature yesterday: 32 °F (at 7:50 AM)
Average temperature yesterday: 36 °F

Past Weeks' High & Low Weather Summary

 TemperatureHumidityPressure
High48 °F (Jan 15, 10:50 PM)100% (Jan 17, 9:20 AM)30.30 "Hg (Jan 17, 9:20 AM)
Low28 °F (Jan 18, 10:20 PM)50% (Jan 15, 10:50 PM)28.74 "Hg (Jan 30, 3:50 AM)
Average35 °F87%29.90 "Hg
* Reported Jan 15 4:20 AM — Jan 30 4:20 AM, Dresden, Weather by CustomWeather, © 2014

Note: Actual official high and low records may vary slightly from our data, if they occured in-between our weather recording intervals... More about our weather records

Advertising

Dresden weather history for previous 24 hours

 ConditionsComfort  
Time TempWeatherWind HumidityBarometerVisibility
4:20 AM
Jan 30
34 °FPartly cloudy.18 mph81%28.74 "HgN/A
3:50 AM34 °FPartly cloudy.16 mph81%28.74 "HgN/A
3:20 AM34 °FPartly cloudy.15 mph81%28.77 "HgN/A
2:50 AM34 °FPassing clouds.16 mph81%28.77 "HgN/A
2:20 AM34 °FPartly cloudy.16 mph81%28.80 "HgN/A
1:50 AM34 °FPartly cloudy.14 mph81%28.80 "HgN/A
1:20 AM34 °FPassing clouds.15 mph81%28.82 "HgN/A
12:50 AM36 °FClear.16 mph75%28.82 "Hg10 mi
12:20 AM36 °FClear.17 mph75%28.85 "Hg10 mi
11:50 PM
Jan 29
36 °FClear.12 mph75%28.88 "Hg10 mi
11:20 PM36 °FClear.12 mph75%28.88 "Hg10 mi
10:50 PM36 °FPartly cloudy.13 mph70%28.91 "HgN/A
10:20 PM36 °FPartly cloudy.14 mph70%28.94 "HgN/A
9:50 PM34 °FPassing clouds.17 mph81%28.97 "HgN/A
9:20 PM36 °FPassing clouds.16 mph75%28.97 "HgN/A
8:50 PM36 °FPassing clouds.16 mph75%29.00 "HgN/A
8:20 PM36 °FPassing clouds.14 mph75%29.03 "HgN/A
7:50 PM36 °FPartly cloudy.14 mph75%29.06 "HgN/A
7:20 PM36 °FClear.12 mph75%29.06 "Hg10 mi
6:50 PM36 °FPassing clouds.12 mph70%29.09 "HgN/A
6:20 PM36 °FPassing clouds.13 mph70%29.09 "HgN/A
5:50 PM36 °FPassing clouds.10 mph75%29.12 "HgN/A
5:20 PM36 °FPartly cloudy.14 mph75%29.12 "HgN/A
4:50 PM36 °FSnow flurries. Partly cloudy.18 mph75%29.15 "Hg5 mi
4:20 PM36 °FBroken clouds.14 mph75%29.15 "HgN/A
3:50 PM36 °FBroken clouds.15 mph75%29.18 "HgN/A
3:20 PM37 °FSnow flurries. Broken clouds.17 mph65%29.18 "HgN/A
2:50 PM37 °FBroken clouds.17 mph60%29.21 "HgN/A
2:20 PM37 °FSunny.16 mph60%29.21 "Hg10 mi
1:50 PM37 °FPartly sunny.16 mph60%29.24 "HgN/A
1:20 PM39 °FBroken clouds.18 mph52%29.27 "HgN/A
12:50 PM39 °FScattered clouds.17 mph52%29.30 "HgN/A
12:20 PM39 °FScattered clouds.18 mph56%29.30 "HgN/A
11:50 AM37 °FPassing clouds.17 mph60%29.33 "HgN/A
11:20 AM37 °FScattered clouds.17 mph60%29.33 "HgN/A
10:50 AM37 °FPassing clouds.20 mph60%29.36 "HgN/A
10:20 AM37 °FSunny.18 mph65%29.36 "Hg10 mi
9:50 AM36 °FPassing clouds.17 mph70%29.36 "HgN/A
9:20 AM36 °FPassing clouds.13 mph75%29.36 "HgN/A
8:50 AM34 °FPartly sunny.14 mph75%29.36 "HgN/A
8:20 AM32 °FSunny.12 mph80%29.36 "Hg10 mi
7:50 AM32 °FSunny.10 mph80%29.36 "Hg10 mi
7:20 AM34 °FClear.10 mph75%29.36 "Hg10 mi
6:50 AM34 °FClear.12 mph75%29.36 "Hg10 mi
6:20 AM34 °FClear.10 mph75%29.36 "Hg10 mi
5:50 AM34 °FClear.10 mph75%29.36 "Hg10 mi
5:20 AM34 °FClear.10 mph75%29.36 "Hg10 mi
Weather by CustomWeather, © 2014

See weather overviewHow to use our weather pages